Weather History for GMMZ - January, 2013

Change the Weather History Date:

Thursday, January 3, 2013

  Actual Average Record
Temperature  
Mean Temperature 46 °F -  
Max Temperature 61 °F 62 °F - ()
Min Temperature 30 °F 36 °F - ()
Degree Days  
Heating Degree Days 20    
Moisture  
Dew Point 20 °F    
Average Humidity 33    
Maximum Humidity 53    
Minimum Humidity 13    
Precipitation  
Precipitation 0.00 in 0.02 in - ()
Sea Level Pressure  
Sea Level Pressure 30.30 in    
Wind  
Wind Speed 2 mph ()    
Max Wind Speed 12 mph    
Max Gust Speed -    
Visibility 12.0 miles    
Events      
T = Trace of Precipitation, MM = Missing Value Source: Averaged Metar Reports

Daily Weather History Graph

Daily Weather History Graph

Search for Another Location

Airport or City:

Trip Planner

Search our weather history database for the weather conditions in past years. The results will help you decide how hot, cold, wet, or windy it might be!

Date:

Astronomy

Jan. 03, 2013 Rise Set
Actual Time 7:26 AM WET 5:38 PM WET
Civil Twilight 6:59 AM WET 6:04 PM WET
Nautical Twilight 6:29 AM WET 6:35 PM WET
Astronomical Twilight 6:00 AM WET 7:04 PM WET
Moon 11:31 PM WET (1/3) 10:55 AM WET (1/3)
Length of Visible Light 11h 05m
Length of Day
10h 12m
Waning Gibbous, 68% of the Moon is Illuminated
Jan 3
Waning Gibbous
Jan 5
Last Quarter
Jan 11
New
Jan 18
First Quarter
Jan 27
Full

Hourly Weather History & Observations

Time (WET) Temp. Windchill Dew Point Humidity Pressure Visibility Wind Dir Wind Speed Gust Speed Precip Events Conditions
12:00 AM 39 °F - 15 °F 24%  in 12 mi NNW 1.2 mph - -   Clear
12:00 AM 39.2 °F - 15.8 °F 39% 30.21 in - Variable 1.2 mph - N/A   Clear
1:00 AM 41.0 °F - 14.0 °F 33% 30.21 in - Calm Calm - N/A   Clear
2:00 AM 42.8 °F - 17.6 °F 36% 30.21 in - Calm Calm - N/A   Clear
3:00 AM 39 °F - 17 °F 27%  in 12 mi WNW 2.3 mph - -  
3:00 AM 39.2 °F - 17.6 °F 42% 30.24 in - Variable 2.3 mph - N/A   Clear
4:00 AM 32.0 °F 28.7 °F 12.2 °F 44% 30.21 in - Variable 3.5 mph - N/A   Clear
5:00 AM 41.0 °F - 14.0 °F 33% 30.21 in - Calm Calm - N/A   Clear
6:00 AM 33 °F - 12 °F 28%  in 12 mi WNW 3.5 mph - -  
6:00 AM - - - N/A% 30.24 in - Variable 3.5 mph - N/A   Clear
7:00 AM 35.6 °F - 14.0 °F 41% 30.24 in - Calm Calm - N/A   Clear
8:00 AM 30.2 °F - 12.2 °F 47% 30.27 in - Calm Calm - N/A   Clear
9:00 AM 37 °F - 13 °F 24%  in 12 mi Calm Calm - -  
9:00 AM 37.4 °F - 15.8 °F 41% 30.30 in - Calm Calm - N/A   Clear
10:00 AM 44.6 °F - 19.4 °F 37% 30.30 in - Calm Calm - N/A   Clear
11:00 AM 46.4 °F 45.2 °F 19.4 °F 34% 30.33 in - Variable 3.5 mph - N/A   Clear
12:00 PM 52 °F - 20 °F 17%  in 12 mi SE 1.2 mph - -  
12:00 PM 51.8 °F - 21.2 °F 30% 30.33 in - Variable 1.2 mph - N/A   Clear
1:00 PM 55.4 °F - 19.4 °F 25% 30.30 in - Calm Calm - N/A   Clear
2:00 PM 59.0 °F - 21.2 °F 23% 30.27 in - Variable 3.5 mph - N/A   Clear
3:00 PM 61 °F - 23 °F 13%  in 12 mi East 3.5 mph - -  
3:00 PM 60.8 °F - 23.0 °F 23% 30.27 in - Variable 3.5 mph - N/A   Clear
4:00 PM 60.8 °F - 23.0 °F 23% 30.27 in - ENE 5.8 mph - N/A   Clear
5:00 PM 59.0 °F - 24.8 °F 27% 30.30 in - East 11.5 mph - N/A   Clear
6:00 PM 56 °F - 27 °F 21%  in 12 mi East 9.2 mph - -  
6:00 PM 55.4 °F - 26.6 °F 33% 30.33 in - East 9.2 mph - N/A   Clear
7:00 PM 53.6 °F - 24.8 °F 33% 30.36 in - East 8.1 mph - N/A   Clear
8:00 PM 50.0 °F - 26.6 °F 40% 30.42 in - Variable 3.5 mph - N/A   Clear
9:00 PM 48 °F - 28 °F 34%  in 12 mi NE 9.2 mph - -  
9:00 PM 48.2 °F - 28.4 °F 46% 30.45 in - NE 9.2 mph - N/A   Clear
10:00 PM 46.4 °F 44.3 °F 28.4 °F 50% 30.48 in - ENE 4.6 mph - N/A   Clear
11:00 PM 44.6 °F - 28.4 °F 53% 30.51 in - Variable 2.3 mph - N/A   Clear